Tehachapi, CA

10:17 PM PDT on July 26, 2017 (GMT -0700)
Tehachapi Municipal

Weather History for KTSP - August, 2014

Change the Weather History Date:

Sunday, August 31, 2014

  Actual Average Record
Temperature  
Mean Temperature 72 °F -  
Max Temperature 82 °F 83 °F 91 °F (2016)
Min Temperature 62 °F 53 °F 46 °F (2011)
Cooling Degree Days 7    
Growing Degree Days 22 (Base 50)    
Moisture  
Dew Point 33 °F    
Average Humidity 25    
Maximum Humidity 40    
Minimum Humidity 12    
Precipitation  
Precipitation 0.00 in - - ()
Sea Level Pressure  
Sea Level Pressure 30.02 in    
Wind  
Wind Speed 14 mph (WNW)    
Max Wind Speed 22 mph    
Max Gust Speed 30 mph    
Visibility 10 miles    
Events      
Averages and records for this station are not official NWS values.
T = Trace of Precipitation, MM = Missing Value Source: NWS Daily Summary

Daily Weather History Graph

Daily Weather History Graph

Search for Another Location

Airport or City:

Trip Planner

Search our weather history database for the weather conditions in past years. The results will help you decide how hot, cold, wet, or windy it might be!

Date:

Astronomy

Aug. 31, 2014 Rise Set
Actual Time 6:25 AM PDT 7:21 PM PDT
Civil Twilight 5:59 AM PDT 7:47 PM PDT
Nautical Twilight 5:28 AM PDT 8:18 PM PDT
Astronomical Twilight 4:57 AM PDT 8:49 PM PDT
Moon 12:02 PM PDT (8/31) 10:54 PM PDT (8/31)
Length of Visible Light 13h 47m
Length of Day
12h 56m
Waxing Crescent, 33% of the Moon is Illuminated
Aug 31
Waxing Crescent
Sep 2
First Quarter
Sep 8
Full
Sep 15
Last Quarter
Sep 23
New

Hourly Weather History & Observations

Time (PDT) Temp. Dew Point Humidity Pressure Visibility Wind Dir Wind Speed Gust Speed Precip Events Conditions
12:15 AM 68.0 °F 37.4 °F 33% 30.02 in 10.0 mi West 13.8 mph - N/A   Clear
12:35 AM 68.0 °F 41.0 °F 37% 30.03 in 10.0 mi WNW 12.7 mph - N/A   Clear
12:55 AM 68.0 °F 41.0 °F 37% 30.03 in 10.0 mi WNW 16.1 mph - N/A   Clear
1:15 AM 68.0 °F 41.0 °F 37% 30.03 in 10.0 mi WNW 15.0 mph - N/A   Clear
1:35 AM 68.0 °F 41.0 °F 37% 30.04 in 10.0 mi WNW 12.7 mph - N/A   Clear
1:55 AM 66.2 °F 41.0 °F 40% 30.03 in 10.0 mi West 15.0 mph - N/A   Clear
2:15 AM 68.0 °F 39.2 °F 35% 30.03 in 10.0 mi WNW 13.8 mph - N/A   Clear
2:35 AM 68.0 °F 39.2 °F 35% 30.03 in 10.0 mi WNW 13.8 mph - N/A   Clear
2:55 AM 68.0 °F 39.2 °F 35% 30.03 in 10.0 mi WNW 12.7 mph - N/A   Clear
3:35 AM 66.2 °F 39.2 °F 37% 30.03 in 10.0 mi WNW 10.4 mph - N/A   Clear
3:55 AM 64.4 °F 39.2 °F 40% 30.03 in 10.0 mi West 8.1 mph - N/A   Clear
4:15 AM 62.6 °F 37.4 °F 39% 30.03 in 10.0 mi West 8.1 mph - N/A   Clear
4:35 AM 62.6 °F 37.4 °F 39% 30.03 in 10.0 mi West 8.1 mph - N/A   Clear
4:55 AM 62.6 °F 37.4 °F 39% 30.03 in 10.0 mi West 9.2 mph - N/A   Clear
5:15 AM 66.2 °F 37.4 °F 35% 30.04 in 10.0 mi West 11.5 mph - N/A   Clear
5:35 AM 66.2 °F 35.6 °F 32% 30.04 in 10.0 mi West 12.7 mph - N/A   Clear
5:55 AM 64.4 °F 37.4 °F 37% 30.04 in 10.0 mi West 15.0 mph 20.7 mph N/A   Clear
6:15 AM 66.2 °F 35.6 °F 32% 30.04 in 10.0 mi WNW 13.8 mph - N/A   Clear
6:35 AM 66.2 °F 35.6 °F 32% 30.04 in 10.0 mi WNW 11.5 mph - N/A   Clear
6:55 AM 66.2 °F 35.6 °F 32% 30.04 in 10.0 mi WNW 16.1 mph - N/A   Clear
7:15 AM 68.0 °F 35.6 °F 30% 30.04 in 10.0 mi WNW 11.5 mph 19.6 mph N/A   Clear
7:35 AM 66.2 °F 39.2 °F 37% 30.04 in 10.0 mi NW 8.1 mph - N/A   Clear
7:55 AM 68.0 °F 37.4 °F 33% 30.05 in 10.0 mi NW 10.4 mph - N/A   Clear
8:15 AM 69.8 °F 35.6 °F 28% 30.05 in 10.0 mi WNW 10.4 mph - N/A   Clear
8:35 AM 71.6 °F 35.6 °F 27% 30.06 in 10.0 mi WNW 10.4 mph - N/A   Clear
10:15 AM 77.0 °F 32.0 °F 19% 30.06 in 10.0 mi NW 15.0 mph 21.9 mph N/A   Clear
10:35 AM 77.0 °F 32.0 °F 19% 30.06 in 10.0 mi NW 17.3 mph 23.0 mph N/A   Clear
10:55 AM 77.0 °F 32.0 °F 19% 30.06 in 10.0 mi NW 19.6 mph 26.5 mph N/A   Clear
11:15 AM 80.6 °F 32.0 °F 17% 30.06 in 10.0 mi NW 16.1 mph 23.0 mph N/A   Clear
11:35 AM 80.6 °F 32.0 °F 17% 30.05 in 10.0 mi NW 17.3 mph 25.3 mph N/A   Clear
11:55 AM 80.6 °F 32.0 °F 17% 30.05 in 10.0 mi NW 17.3 mph 24.2 mph N/A   Clear
12:15 PM 80.6 °F 32.0 °F 17% 30.05 in 10.0 mi NW 17.3 mph 24.2 mph N/A   Clear
12:35 PM 80.6 °F 32.0 °F 17% 30.04 in 10.0 mi NW 19.6 mph 25.3 mph N/A   Clear
12:55 PM 80.6 °F 32.0 °F 17% 30.04 in 10.0 mi NNW 19.6 mph 25.3 mph N/A   Clear
1:15 PM 82.4 °F 32.0 °F 16% 30.04 in 10.0 mi NW 18.4 mph 26.5 mph N/A   Clear
1:35 PM 82.4 °F 30.2 °F 15% 30.03 in 10.0 mi NW 19.6 mph 25.3 mph N/A   Clear
1:55 PM 82.4 °F 28.4 °F 14% 30.03 in 10.0 mi NW 19.6 mph 26.5 mph N/A   Clear
2:15 PM 82.4 °F 28.4 °F 14% 30.02 in 10.0 mi NW 19.6 mph 27.6 mph N/A   Clear
2:55 PM 82.4 °F 26.6 °F 13% 30.01 in 10.0 mi NW 19.6 mph 27.6 mph N/A   Clear
3:15 PM 82.4 °F 26.6 °F 13% 30.00 in 10.0 mi NW 20.7 mph 26.5 mph N/A   Clear
3:55 PM 82.4 °F 26.6 °F 13% 29.99 in 10.0 mi NW 19.6 mph 27.6 mph N/A   Clear
4:15 PM 82.4 °F 28.4 °F 14% 29.99 in 10.0 mi NW 21.9 mph 27.6 mph N/A   Clear
4:35 PM 82.4 °F 28.4 °F 14% 29.98 in 10.0 mi NW 18.4 mph 29.9 mph N/A   Clear
4:55 PM 82.4 °F 24.8 °F 12% 29.98 in 10.0 mi NW 21.9 mph 26.5 mph N/A   Clear
5:15 PM 80.6 °F 26.6 °F 14% 29.98 in 10.0 mi NW 20.7 mph 26.5 mph N/A   Clear
5:35 PM 80.6 °F 24.8 °F 13% 29.98 in 10.0 mi NW 20.7 mph 26.5 mph N/A   Clear
5:55 PM 78.8 °F 23.0 °F 13% 29.98 in 10.0 mi NW 19.6 mph 27.6 mph N/A   Clear
6:15 PM 77.0 °F 23.0 °F 13% 29.98 in 10.0 mi NW 20.7 mph 26.5 mph N/A   Clear
6:35 PM 77.0 °F 26.6 °F 16% 29.98 in 10.0 mi WNW 20.7 mph 25.3 mph N/A   Clear
6:55 PM 75.2 °F 26.6 °F 17% 29.98 in 10.0 mi WNW 17.3 mph 25.3 mph N/A   Clear
7:15 PM 73.4 °F 28.4 °F 19% 29.98 in 10.0 mi WNW 13.8 mph - N/A   Clear
7:35 PM 73.4 °F 28.4 °F 19% 29.99 in 10.0 mi WNW 12.7 mph 20.7 mph N/A   Clear
7:55 PM 71.6 °F 26.6 °F 19% 29.99 in 10.0 mi WNW 11.5 mph - N/A   Clear
8:15 PM 71.6 °F 26.6 °F 19% 29.99 in 10.0 mi WNW 10.4 mph - N/A   Clear
8:35 PM 69.8 °F 26.6 °F 20% 29.99 in 10.0 mi WNW 11.5 mph - N/A   Clear
9:15 PM 69.8 °F 28.4 °F 21% 30.00 in 10.0 mi WNW 9.2 mph - N/A   Clear
9:35 PM 68.0 °F 30.2 °F 24% 30.00 in 10.0 mi WNW 10.4 mph - N/A   Clear
10:15 PM 64.4 °F 30.2 °F 28% 30.01 in 10.0 mi West 9.2 mph - N/A   Clear
10:35 PM 64.4 °F 32.0 °F 30% 30.01 in 10.0 mi West 8.1 mph - N/A   Clear
11:15 PM 64.4 °F 32.0 °F 30% 30.01 in 10.0 mi WNW 4.6 mph - N/A   Clear
11:35 PM 64.4 °F 32.0 °F 30% 30.01 in 10.0 mi WNW 10.4 mph - N/A   Clear
11:55 PM 66.2 °F 32.0 °F 28% 30.01 in 10.0 mi WNW 10.4 mph - N/A   Clear